Location: Balaclava NSW 2575, Australia
(34.4510°S, 150.4953°E)
Time: 04:01:38
(UTC+10:00)

Explorer 11/Cluster Stage 4 - Visible Passes

Search period start: 19 June 2021 00:00
Search period end: 29 June 2021 00:00
Orbit: 467 x 1257 km, 28.8° (Epoch: 17 June)

Date Brightness Start Highest point End Pass type
(mag) Time Alt. Az. Time Alt. Az. Time Alt. Az.
19 Jun 7.0 17:29:04 10° WNW 17:32:52 39° N 17:37:24 10° ENE visible
19 Jun 7.4 19:16:40 10° WNW 19:20:37 38° NNW 19:20:37 38° NNW visible
20 Jun 7.0 17:18:11 10° WNW 17:21:53 38° N 17:26:13 10° ENE visible
20 Jun 7.4 19:05:53 10° WNW 19:09:56 34° N 19:10:19 34° N visible
21 Jun 7.6 18:55:07 10° WNW 18:58:56 30° N 19:00:07 27° NNE visible
22 Jun 7.7 18:44:23 10° WNW 18:47:55 26° NNW 18:49:59 19° NNE visible
23 Jun 7.9 18:33:42 10° WNW 18:36:55 22° NNW 18:39:58 12° NNE visible
24 Jun 8.2 18:23:04 10° WNW 18:25:55 19° NNW 18:29:05 10° NNE visible
25 Jun 8.4 18:12:31 10° NW 18:14:55 16° NNW 18:17:30 10° NNE visible
26 Jun 8.6 18:02:10 10° NW 18:03:55 13° NNW 18:05:45 10° N visible
27 Jun 8.8 17:52:32 10° NNW 17:52:54 10° NNW 17:53:16 10° NNW visible
